[[{"header":{"parameterUnit":"m.s-1","parameterCategory":1,"la1":30.2991,"la2":30.254,"lo1":-89.0895,"lo2":-89.0444,"dy":0.0017,"dx":0.0017,"nx":28,"ny":28,"refTime":"2024-10-17T03:00:00:Z","depth":0,"parameterNumber":2,"parameterNumberName":"U-component_of_WINDS"},"data":[0,0,0,0,0,0,0,0,0,0,0,0,0,0,0,0,0,0,0,0,0,0,0,0,0,0,0,0,0,0,0,0,0,0,0,0,0,0,0,0,0,0,0,0,0,0,0,0,0,0,0,0,0,0,0,0,0,0,-2.5211,-2.5211,0,-2.5249,-2.5249,-2.5249,-2.5194,-2.5192,-2.519,-2.5188,-2.5225,-2.5227,-2.523,0,0,0,0,0,0,0,0,0,0,0,0,0,-2.5089,-2.5091,-2.5211,-2.5211,-2.5212,-2.5248,-2.5249,-2.5249,-2.5194,-2.5192,-2.5189,-2.5187,-2.5224,-2.5227,-2.523,0,0,0,0,0,0,0,0,0,0,0,0,0,-2.5136,-2.5092,-2.5211,-2.5189,-2.5187,-2.5248,-2.5249,-2.525,-2.5195,-2.5192,-2.5189,-2.5186,-2.5223,-2.5227,-2.5231,-2.5315,0,0,-2.5243,-2.5245,0,0,0,0,0,0,0,0,-2.5133,-2.514,-2.5192,-2.519,-2.5189,-2.5214,-2.5219,-2.5271,-2.5195,-2.5192,-2.5188,-2.5185,-2.5223,-2.5227,-2.524,-2.5316,-2.5318,-2.5244,-2.5246,-2.5248,-2.5249,0,0,0,0,0,0,0,-2.513,-2.5138,-2.5226,-2.5192,-2.5191,-2.5176,-2.518,-2.5229,-2.5223,-2.5192,-2.5188,-2.5193,-2.5222,-2.5237,-2.5241,-2.5319,-2.5244,-2.5247,-2.525,-2.5252,-2.5464,-2.5467,0,0,0,0,0,0,-2.513,-2.5136,-2.5225,-2.5227,-2.5153,-2.5181,-2.5185,-2.5208,-2.5223,-2.5222,-2.5196,-2.5191,-2.5231,-2.5236,-2.5242,-2.534,-2.5248,-2.5252,-2.5254,-2.5461,-2.5465,-2.5468,0,0,0,0,0,0,-2.5127,-2.5138,-2.5223,-2.518,-2.519,-2.5186,-2.5213,-2.5211,-2.5225,-2.5226,-2.5224,-2.5212,-2.5229,-2.5236,-2.5297,-2.5341,-2.5254,-2.5258,-2.5457,-2.5462,-2.5467,-2.5539,0,0,0,0,0,0,-2.5124,-2.5138,-2.517,-2.5182,-2.5193,-2.5278,-2.5216,-2.5214,-2.5233,-2.5227,-2.524,-2.524,-2.5227,-2.5291,-2.5301,-2.5345,-2.5261,-2.5453,-2.546,-2.5465,-2.5532,-2.5545,-2.5556,0,0,0,0,0,-2.512,-2.5189,-2.5172,-2.5183,-2.5233,-2.5281,-2.5287,-2.5272,-2.5237,-2.5269,-2.5269,-2.5239,-2.5335,-2.5298,-2.5309,-2.5355,-2.5451,-2.5458,-2.5465,-2.5527,-2.5543,-2.5556,0,0,0,0,0,0,-2.5182,-2.519,-2.5171,-2.5246,-2.5264,-2.5272,-2.5312,-2.5289,-2.5316,-2.5309,-2.5288,-2.5291,-2.5356,-2.5362,-2.532,-2.5436,-2.5387,-2.5396,-2.543,-2.5445,-2.5457,-2.5454,-2.5264,0,0,0,0,0,-2.5205,-2.5243,-2.5248,-2.5313,-2.5323,-2.5316,-2.5336,-2.5323,-2.534,-2.5346,-2.5351,-2.5367,-2.5401,-2.5423,-2.5454,-2.5533,-2.5535,-2.557,-2.5582,-2.5592,-2.56,-2.5641,-2.5656,-2.5492,-2.5491,-2.5491,0,0,-2.5251,-2.526,-2.5286,-2.5326,-2.5338,-2.5378,-2.5323,-2.5367,-2.5396,-2.5353,-2.5411,-2.5414,-2.5432,-2.5502,-2.5533,-2.5508,-2.5646,-2.5601,-2.5609,-2.5612,-2.565,-2.5666,-2.5679,-2.5496,-2.5495,-2.5495,0,0,-2.5356,-2.5368,-2.5423,-2.5436,-2.5455,-2.545,-2.5463,-2.5475,-2.5476,-2.5533,-2.5501,-2.5535,-2.5594,-2.5607,-2.5622,-2.5732,-2.5705,-2.5742,-2.5805,-2.5845,-2.5858,-2.5869,-2.5908,-2.5922,-2.5751,-2.5751,-2.5751,0,-2.5412,-2.5471,-2.5454,-2.5501,-2.5519,-2.5482,-2.5538,-2.5551,-2.5579,-2.5592,-2.5564,-2.5636,-2.5645,-2.5717,-2.5744,-2.5757,-2.5771,-2.574,-2.5858,-2.5869,-2.5879,-2.5916,-2.593,-2.5755,-2.5755,-2.5754,-2.5754,0,-2.5538,-2.558,-2.5622,-2.565,-2.5673,-2.5724,-2.5714,-2.5739,-2.5724,-2.5721,-2.578,-2.5789,-2.5821,-2.5838,-2.5823,-2.5908,-2.5891,-2.5861,-2.5811,-2.59,-2.5933,-2.5947,-2.5762,-2.576,-2.5759,-2.5758,0,0,-2.5684,-2.5701,-2.5717,-2.5729,-2.5747,-2.5778,-2.5827,-2.5859,-2.588,-2.5901,-2.594,-2.5991,-2.5963,-2.5979,-2.5965,-2.6001,-2.6086,-2.5966,-2.5966,-2.5987,-2.6179,-2.6202,-2.6218,-2.6069,-2.6072,-2.6074,-2.6177,0,-2.5788,-2.5873,-2.5859,-2.5941,-2.5978,-2.5944,-2.5986,-2.6001,-2.6,-2.6031,-2.603,-2.6066,-2.6026,-2.6036,-2.6069,-2.6069,-2.6124,-2.6061,-2.6105,-2.6107,-2.6101,-2.6236,-2.626,-2.6357,-2.6191,-2.6193,-2.6195,0,-2.5921,-2.5947,-2.6033,-2.6044,-2.6059,-2.6098,-2.6125,-2.6156,-2.6172,-2.6168,-2.6187,-2.6166,-2.6214,-2.6164,-2.6229,-2.6186,-2.6203,-2.6206,-2.6209,-2.6212,-2.6156,-2.6242,-2.6388,-2.6402,-2.6215,-2.6214,-2.6212,0,-2.6018,-2.6073,-2.6132,-2.6143,-2.6158,-2.6186,-2.6193,-2.6206,-2.6226,-2.625,-2.6262,-2.6291,-2.6307,-2.6329,-2.6317,-2.6282,-2.6384,-2.6333,-2.6382,-2.6382,-2.6404,-2.6403,-2.6555,-2.6417,-2.6417,-2.6416,-2.6416,0,-2.6135,-2.6189,-2.6175,-2.6211,-2.627,-2.6253,-2.6311,-2.6314,-2.6326,-2.6361,-2.6333,-2.6367,-2.6349,-2.6381,-2.6371,-2.6426,-2.6433,-2.6431,-2.6428,-2.6434,-2.6434,-2.6444,-2.6437,-2.642,-2.6419,-2.6419,-2.6418,0,-2.6253,-2.6246,-2.6307,-2.6316,-2.632,-2.6363,-2.637,-2.6403,-2.6399,-2.6444,-2.6454,-2.6449,-2.6485,-2.6475,-2.6514,-2.6508,-2.6577,-2.6565,-2.6571,-2.6568,-2.6618,-2.6613,-2.6781,-2.6801,-2.6651,-2.6652,-2.6653,0,-2.6328,-2.6369,-2.6382,-2.6404,-2.6414,-2.6449,-2.6469,-2.6453,-2.6475,-2.6496,-2.6527,-2.656,-2.6586,-2.6645,-2.6645,-2.6674,-2.6663,-2.6719,-2.6667,-2.6671,-2.6663,-2.666,-2.6664,-2.673,-2.6731,-2.6733,-2.6734,0,-2.6463,-2.6457,-2.6487,-2.6517,-2.6541,-2.6563,-2.6583,-2.6602,-2.6587,-2.6613,-2.665,-2.667,-2.671,-2.6744,-2.6771,-2.6777,-2.6753,-2.6751,-2.6763,-2.6769,-2.6771,-2.677,-2.6599,-2.6747,-2.6745,-2.6745,-2.6744,-2.6743,-2.6561,-2.6595,-2.661,-2.6644,-2.6657,-2.6676,-2.6707,-2.6708,-2.6738,-2.677,-2.6758,-2.68,-2.6814,-2.6848,-2.6858,-2.689,-2.6868,-2.6887,-2.6892,-2.6897,-2.6902,-2.6766,-2.6895,-2.6895,-2.6894,-2.6894,-2.6894,0,-2.6693,-2.6701,-2.6733,-2.6761,-2.6788,-2.6763,-2.6783,-2.6807,-2.6844,-2.686,-2.6886,-2.6928,-2.696,-2.6962,-2.6992,-2.7017,-2.7007,-2.7025,-2.7023,-2.7025,-2.692,-2.6906,-2.7033,-2.7033,-2.7033,-2.7033,-2.7033,-2.7033,-2.6765,-2.6821,-2.6818,-2.6879,-2.6886,-2.6928,-2.6941,-2.6958,-2.697,-2.7018,-2.7045,-2.7046,-2.7055,-2.7086,-2.7114,-2.7113,-2.7126,-2.7148,-2.7144,-2.7046,-2.7032,-2.7019,-2.7005,-2.7151,-2.7152,-2.7245,-2.7246,-2.7247]},{"header":{"parameterUnit":"m.s-1","parameterCategory":1,"la1":30.2991,"la2":30.254,"lo1":-89.0895,"lo2":-89.0444,"dy":0.0017,"dx":0.0017,"nx":28,"ny":28,"refTime":"2024-10-17T03:00:00:Z","depth":0,"parameterNumber":3,"parameterNumberName":"V-component_of_WINDS"},"data":[0,0,0,0,0,0,0,0,0,0,0,0,0,0,0,0,0,0,0,0,0,0,0,0,0,0,0,0,0,0,0,0,0,0,0,0,0,0,0,0,0,0,0,0,0,0,0,0,0,0,0,0,0,0,0,0,0,0,-2.4198,-2.4199,0,-2.4279,-2.428,-2.4281,-2.4291,-2.429,-2.4289,-2.4289,-2.4368,-2.437,-2.4373,0,0,0,0,0,0,0,0,0,0,0,0,0,-2.4047,-2.405,-2.4198,-2.4199,-2.42,-2.4279,-2.428,-2.4281,-2.4291,-2.429,-2.4289,-2.4288,-2.4367,-2.437,-2.4373,0,0,0,0,0,0,0,0,0,0,0,0,0,-2.4119,-2.4051,-2.4198,-2.4215,-2.4217,-2.4279,-2.428,-2.4282,-2.4291,-2.429,-2.4289,-2.4288,-2.4366,-2.437,-2.4374,-2.4424,0,0,-2.4387,-2.4389,0,0,0,0,0,0,0,0,-2.4115,-2.4124,-2.4211,-2.4214,-2.4216,-2.4274,-2.4256,-2.4329,-2.4291,-2.4263,-2.4289,-2.4287,-2.4337,-2.4344,-2.4361,-2.4427,-2.4431,-2.4387,-2.439,-2.4392,-2.4393,0,0,0,0,0,0,0,-2.411,-2.4121,-2.423,-2.4212,-2.4216,-2.4217,-2.4225,-2.427,-2.4305,-2.4265,-2.4266,-2.4276,-2.4338,-2.4357,-2.4363,-2.4432,-2.4387,-2.4391,-2.4394,-2.4395,-2.4542,-2.4543,0,0,0,0,0,0,-2.4102,-2.4117,-2.4228,-2.4233,-2.4162,-2.422,-2.423,-2.4256,-2.4305,-2.4311,-2.4277,-2.4276,-2.435,-2.4358,-2.4366,-2.4427,-2.4392,-2.4396,-2.4398,-2.454,-2.4542,-2.4543,0,0,0,0,0,0,-2.4099,-2.4112,-2.4224,-2.4175,-2.4189,-2.4224,-2.4254,-2.4259,-2.4278,-2.4314,-2.432,-2.429,-2.435,-2.436,-2.4409,-2.443,-2.4398,-2.4401,-2.4539,-2.4541,-2.4543,-2.4549,0,0,0,0,0,0,-2.4095,-2.4111,-2.4131,-2.4175,-2.4192,-2.4267,-2.4255,-2.4261,-2.4285,-2.4285,-2.4328,-2.4333,-2.435,-2.4403,-2.4413,-2.4435,-2.4405,-2.4537,-2.454,-2.4542,-2.4547,-2.4551,-2.4554,0,0,0,0,0,-2.4089,-2.4129,-2.4132,-2.4146,-2.4218,-2.4269,-2.4278,-2.4297,-2.4287,-2.4307,-2.433,-2.4332,-2.4426,-2.4408,-2.442,-2.4443,-2.4536,-2.4539,-2.4542,-2.4545,-2.455,-2.4554,0,0,0,0,0,0,-2.4085,-2.4135,-2.4139,-2.4195,-2.4228,-2.427,-2.4296,-2.4301,-2.4337,-2.4335,-2.4356,-2.4365,-2.4413,-2.4433,-2.4412,-2.4493,-2.448,-2.4485,-2.4478,-2.4483,-2.4487,-2.448,-2.4408,0,0,0,0,0,-2.4091,-2.4129,-2.417,-2.4215,-2.4232,-2.4261,-2.4284,-2.4296,-2.433,-2.4343,-2.437,-2.4402,-2.4438,-2.4462,-2.4498,-2.455,-2.4559,-2.4572,-2.4575,-2.4578,-2.4582,-2.461,-2.4616,-2.4553,-2.4553,-2.4553,0,0,-2.4103,-2.4135,-2.4158,-2.4215,-2.4242,-2.4279,-2.4272,-2.4313,-2.434,-2.4349,-2.4397,-2.4418,-2.4455,-2.4505,-2.4529,-2.4523,-2.4602,-2.4582,-2.4584,-2.4587,-2.4614,-2.462,-2.4625,-2.4555,-2.4555,-2.4555,0,0,-2.4144,-2.4172,-2.4213,-2.424,-2.4281,-2.43,-2.431,-2.4352,-2.4366,-2.4415,-2.4422,-2.4454,-2.4517,-2.4543,-2.4564,-2.4614,-2.4617,-2.4625,-2.4644,-2.4671,-2.4676,-2.468,-2.4697,-2.4703,-2.463,-2.463,-2.463,0,-2.4153,-2.4211,-2.4232,-2.4272,-2.4297,-2.4308,-2.4347,-2.4372,-2.4422,-2.4438,-2.4431,-2.451,-2.4536,-2.4592,-2.4605,-2.4622,-2.4632,-2.462,-2.4674,-2.4678,-2.4683,-2.4699,-2.4706,-2.463,-2.463,-2.463,-2.463,0,-2.422,-2.426,-2.4287,-2.4336,-2.4364,-2.4404,-2.4429,-2.4455,-2.4464,-2.4483,-2.4532,-2.4564,-2.4606,-2.462,-2.4629,-2.4678,-2.4673,-2.467,-2.4657,-2.4689,-2.4705,-2.4711,-2.4631,-2.4631,-2.4631,-2.4631,0,0,-2.426,-2.4321,-2.433,-2.4352,-2.4398,-2.4429,-2.4468,-2.451,-2.4531,-2.4565,-2.4598,-2.465,-2.4648,-2.4672,-2.4684,-2.4708,-2.4744,-2.4702,-2.4703,-2.4708,-2.4799,-2.48,-2.4807,-2.4747,-2.4748,-2.4749,-2.4795,0,-2.4305,-2.4378,-2.4397,-2.4458,-2.4495,-2.4505,-2.4539,-2.457,-2.4589,-2.4622,-2.4643,-2.468,-2.4674,-2.4688,-2.4713,-2.4735,-2.4763,-2.4732,-2.4776,-2.4778,-2.4766,-2.4815,-2.4817,-2.4859,-2.4801,-2.4803,-2.4803,0,-2.4368,-2.4404,-2.4469,-2.4509,-2.4525,-2.4556,-2.4595,-2.4627,-2.4662,-2.4674,-2.4701,-2.4711,-2.4751,-2.4736,-2.4791,-2.477,-2.4789,-2.4803,-2.4805,-2.4809,-2.4792,-2.482,-2.4873,-2.4879,-2.4813,-2.4812,-2.4812,0,-2.4389,-2.4454,-2.4501,-2.452,-2.4568,-2.459,-2.461,-2.4644,-2.4668,-2.4702,-2.4718,-2.4756,-2.4777,-2.4805,-2.4825,-2.4812,-2.4877,-2.4865,-2.4887,-2.4887,-2.49,-2.4899,-2.4956,-2.4914,-2.4914,-2.4914,-2.4913,0,-2.4437,-2.4476,-2.4511,-2.454,-2.4583,-2.4605,-2.4647,-2.4668,-2.4698,-2.473,-2.4741,-2.477,-2.4795,-2.4827,-2.4842,-2.4885,-2.4894,-2.4904,-2.4907,-2.4903,-2.4901,-2.4915,-2.4912,-2.4915,-2.4915,-2.4915,-2.4914,0,-2.4469,-2.4494,-2.4546,-2.4588,-2.4599,-2.4629,-2.4664,-2.4692,-2.4711,-2.4751,-2.4762,-2.4792,-2.4831,-2.4853,-2.4901,-2.4912,-2.4959,-2.4961,-2.4947,-2.4948,-2.497,-2.4967,-2.5037,-2.5047,-2.4999,-2.4999,-2.5,0,-2.4497,-2.4528,-2.4573,-2.4596,-2.4617,-2.4654,-2.4678,-2.4701,-2.4725,-2.4767,-2.4789,-2.4829,-2.4861,-2.4922,-2.4948,-2.4984,-2.4987,-2.5009,-2.4993,-2.4987,-2.4986,-2.4984,-2.4987,-2.5012,-2.5012,-2.5012,-2.5013,0,-2.4545,-2.4556,-2.4592,-2.4632,-2.4661,-2.4693,-2.4725,-2.4743,-2.477,-2.4797,-2.4837,-2.4863,-2.4912,-2.4951,-2.499,-2.501,-2.5015,-2.5018,-2.5025,-2.502,-2.501,-2.5015,-2.4954,-2.5016,-2.5016,-2.5015,-2.5015,-2.5015,-2.4575,-2.4602,-2.4639,-2.4678,-2.4704,-2.4734,-2.4761,-2.4785,-2.4819,-2.4862,-2.4872,-2.4914,-2.4947,-2.5,-2.5021,-2.5054,-2.505,-2.506,-2.5063,-2.5065,-2.5065,-2.5006,-2.5061,-2.5061,-2.5061,-2.5061,-2.5061,0,-2.4623,-2.4647,-2.4683,-2.4727,-2.4758,-2.4762,-2.4797,-2.4822,-2.4859,-2.489,-2.4922,-2.4967,-2.5005,-2.5033,-2.5071,-2.5091,-2.5095,-2.51,-2.5099,-2.5103,-2.5067,-2.5056,-2.5097,-2.5097,-2.5097,-2.5097,-2.5097,-2.5097,-2.4651,-2.4697,-2.4712,-2.477,-2.4794,-2.4836,-2.4855,-2.4882,-2.4907,-2.4958,-2.4989,-2.5008,-2.5037,-2.5078,-2.5112,-2.5119,-2.5132,-2.5137,-2.5144,-2.511,-2.5106,-2.5102,-2.5092,-2.514,-2.514,-2.5178,-2.5179,-2.5179]}]]